Flag for U.S.A. Weather past 2 weeks in Naples, Florida, U.S.A.

Now
63 °F

Passing clouds.


Feels Like: 63 °F
Forecast: 56 / 67 °F
Wind: 13 mph from Northwest

Location: Naples Municipal

Current Time: Jan 26, 2015 at 10:34:29 PM

Latest Report: Jan 26, 2015 at 9:53 PM


Visibility: 10 mi

Pressure: 29.97 "Hg

Humidity: 60%

Dew point: 49 °F

Location of NaplesLocation

Historic Weather in Naples — Graph

°F

Naples temperature yesterday

Maximum temperature yesterday: 66 °F (at 12:53 PM)
Minimum temperature yesterday: 48 °F (at 6:53 AM)
Average temperature yesterday: 58 °F

Past Weeks' High & Low Weather Summary

 TemperatureHumidityPressure
High82 °F (Jan 13, 1:53 PM)100% (Jan 11, 9:53 PM)30.24 "Hg (Jan 11, 9:53 PM)
Low48 °F (Jan 25, 6:53 AM)39% (Jan 19, 12:53 PM)29.86 "Hg (Jan 24, 5:53 AM)
Average67 °F79%30.06 "Hg
* Reported Jan 11 8:53 PM — Jan 26 8:53 PM, Naples, Weather by CustomWeather, © 2014

Note: Actual official high and low records may vary slightly from our data, if they occured in-between our weather recording intervals... More about our weather records

Advertising

Naples weather history for previous 24 hours

 ConditionsComfort  
Time TempWeatherWind HumidityBarometerVisibility
8:53 PM
Jan 26
64 °FOvercast.17 mph63%29.98 "Hg10 mi
7:53 PM64 °FOvercast.16 mph65%29.95 "Hg10 mi
6:53 PM65 °FMostly cloudy.10 mph66%29.93 "Hg10 mi
5:53 PM66 °FPartly sunny.20 mph56%29.92 "Hg10 mi
4:53 PM68 °FPartly sunny.18 mph51%29.92 "Hg10 mi
3:53 PM71 °FPartly sunny.16 mph49%29.91 "Hg10 mi
2:53 PM71 °FPassing clouds.23 mph47%29.90 "Hg10 mi
1:53 PM71 °FScattered clouds.22 mph51%29.91 "Hg9 mi
12:53 PM71 °FPassing clouds.17 mph55%29.93 "Hg10 mi
11:53 AM71 °FMostly cloudy.18 mph57%29.96 "Hg10 mi
10:53 AM70 °FMostly cloudy.16 mph66%29.96 "Hg9 mi
9:53 AM66 °FFog.10 mph87%29.97 "Hg6 mi
8:59 AM64 °FLight rain. Fog.15 mph94%29.96 "Hg3 mi
7:53 AM70 °FBroken clouds.13 mph76%29.91 "Hg9 mi
6:53 AM69 °FMostly cloudy.16 mph73%29.90 "Hg10 mi
5:53 AM68 °FPassing clouds.12 mph70%29.90 "Hg10 mi
4:53 AM67 °FMostly cloudy.12 mph68%29.92 "Hg10 mi
3:53 AM66 °FClear.10 mph65%29.93 "Hg10 mi
2:53 AM66 °FPassing clouds.13 mph61%29.94 "Hg10 mi
1:53 AM65 °FClear.10 mph61%29.94 "Hg10 mi
12:53 AM63 °FOvercast.N/A68%29.96 "Hg10 mi
11:53 PM
Jan 25
57 °FMostly cloudy.3 mph90%30.00 "Hg10 mi
10:53 PM54 °FClear.3 mph90%30.02 "Hg10 mi
Weather by CustomWeather, © 2014

See weather overviewHow to use our weather pages